Wetbulb
68.89 69.79 70.47 70.28 71.06 72.03 72.11 71.49 72.82 73.90 75.25 74.82 74.98 75.37 75.58 75.26 74.05 73.94 73.18 73.50 73.14 72.27
69.30 69.41 69.59 70.31 71.44 72.56 73.81 73.67 75.55 76.08 75.65 75.26 75.61 75.39 74.60 73.16 72.57 72.30 71.51 70.89 70.94 71.06
71.26 71.15 70.39 71.23 73.25 74.60 74.87 75.76 75.33 74.67 74.68 74.92 73.90 72.99 71.61 69.47 69.20 68.60 67.80 68.36 68.74 68.93
73.56 74.15 74.76 74.19 73.37 73.16 73.88 74.13 74.28 74.46 73.26 72.37 70.50 69.84 68.81 67.88 67.62 66.94 67.16 67.48 67.36 66.82
74.55 75.42 74.32 72.97 72.83 73.34 72.81 73.04 72.82 72.64 71.30 69.59 68.69 68.54 68.06 67.04 66.63 66.03 65.82 65.86 66.31 66.03
75.75 74.48 72.78 72.24 71.89 71.59 71.00 71.36 70.97 70.21 69.16 68.53 68.18 67.79 67.76 67.52 66.68 66.15 65.81 65.60 65.24 65.14
73.87 74.14 72.58 71.54 68.46 68.08 70.59 70.23 70.34 69.23 68.66 68.25 67.89 67.50 66.97 66.90 66.58 66.25 66.27 66.61 66.39 66.06
73.84 72.57 69.95 67.72 68.60 68.51 69.05 69.09 69.14 68.52 67.89 67.33 66.25 65.41 66.22 66.06 66.01 65.96 65.78 66.30 66.35 66.37
71.47 67.13 66.64 66.74 68.25 67.81 67.80 67.78 68.02 67.78 67.61 66.71 64.66 62.57 63.54 65.29 64.83 64.43 63.74 62.86 63.60 64.68
69.55 67.52 67.48 67.13 67.54 66.73 66.72 67.26 66.85 66.36 66.18 65.56 64.70 62.18 61.75 62.38 62.58 60.63 60.45 61.01 61.68 61.59
69.79 67.93 67.64 67.45 66.61 66.08 66.57 66.37 65.12 64.95 65.18 64.89 62.35 59.94 59.35 59.60 60.21 59.75 60.15 60.63 61.24 61.72
70.15 68.05 66.87 66.30 66.23 65.56 65.51 65.11 64.21 63.37 62.34 60.81 59.42 57.15 56.88 59.51 59.69 59.63 60.17 61.35 61.99 61.79
69.64 67.88 66.63 66.15 65.51 65.29 65.49 64.33 63.89 62.91 61.84 59.15 59.11 55.69 55.90 58.99 59.10 59.25 59.08 60.53 61.67 57.41
68.85 67.52 66.70 65.75 65.14 64.56 63.65 63.30 63.54 63.88 62.76 61.33 60.39 58.36 55.18 55.56 60.40 59.33 59.50 59.73 60.01 59.40
MSLP
1018.87 1019.04 1019.27 1019.46 1019.73 1019.80 1019.88 1019.73 1019.39 1019.49 1019.18 1019.15 1019.04 1018.94 1018.89 1019.11 1019.21 1019.18 1019.14 1019.11 1019.10 1019.13
1018.33 1018.63 1019.19 1019.30 1019.46 1019.42 1019.41 1019.37 1019.06 1018.91 1018.90 1018.98 1018.93 1018.89 1019.15 1019.38 1019.45 1019.56 1019.62 1019.67 1019.63 1019.39
1018.29 1018.82 1018.88 1019.11 1019.29 1019.26 1019.12 1018.87 1019.01 1019.06 1019.04 1019.15 1019.24 1019.42 1019.61 1019.72 1020.06 1020.06 1020.09 1020.02 1020.01 1019.84
1017.66 1018.34 1018.66 1018.78 1019.07 1019.11 1019.16 1019.17 1019.09 1019.17 1019.44 1019.69 1019.84 1020.03 1020.13 1020.31 1020.55 1020.55 1020.51 1020.47 1020.46 1020.42
1017.15 1017.50 1018.15 1018.60 1019.09 1019.22 1019.28 1019.04 1019.27 1019.60 1019.84 1020.16 1020.41 1020.52 1020.61 1020.68 1020.89 1020.81 1020.83 1020.93 1020.82 1020.78
1016.90 1017.64 1018.24 1018.71 1019.03 1019.39 1019.50 1019.56 1019.71 1019.88 1020.32 1020.50 1020.68 1021.02 1021.15 1021.07 1021.19 1021.31 1021.37 1021.34 1021.33 1021.38
1016.72 1017.42 1018.09 1018.80 1019.37 1019.72 1019.77 1019.86 1020.12 1020.48 1020.69 1020.74 1020.97 1021.21 1021.36 1021.56 1021.72 1021.80 1021.82 1021.83 1021.75 1021.73
1016.68 1017.48 1018.35 1019.05 1019.37 1019.84 1019.97 1020.22 1020.53 1020.73 1021.02 1021.24 1021.36 1021.48 1021.81 1021.97 1022.05 1022.10 1022.28 1022.32 1022.16 1022.15
1016.99 1017.81 1018.41 1019.05 1019.51 1019.91 1020.21 1020.52 1020.73 1021.09 1021.42 1021.62 1021.85 1022.49 1022.30 1022.05 1022.27 1022.54 1022.67 1022.71 1022.71 1022.58
1016.94 1017.95 1018.70 1019.24 1019.67 1020.04 1020.31 1020.66 1021.10 1021.43 1021.68 1021.96 1022.38 1022.71 1022.79 1022.66 1022.69 1022.95 1023.10 1023.09 1022.95 1022.77
1016.91 1017.78 1018.58 1019.06 1019.49 1020.02 1020.46 1020.87 1021.24 1021.68 1022.04 1022.37 1022.93 1023.17 1023.31 1023.35 1023.33 1023.53 1023.56 1023.53 1023.51 1023.42
1016.55 1017.42 1018.26 1018.89 1019.56 1020.12 1020.54 1021.05 1021.51 1021.96 1022.37 1022.71 1023.30 1023.64 1023.81 1023.57 1023.69 1023.76 1023.84 1023.86 1023.78 1023.71
1016.38 1017.18 1017.97 1018.80 1019.61 1020.29 1020.72 1021.22 1021.68 1022.22 1022.62 1022.95 1023.37 1024.02 1024.17 1023.73 1023.75 1024.03 1023.96 1024.03 1023.95 1024.70
1016.41 1017.16 1018.02 1018.88 1019.68 1020.19 1020.66 1021.32 1021.79 1022.21 1022.65 1022.99 1023.22 1023.91 1024.28 1024.27 1023.97 1023.94 1023.90 1023.82 1024.02 1024.39
Wind_Speed
3 2 2 2 3 6 4 3 7 6 5 5 6 5 4 1 3 4 4 5 4 2
4 2 3 6 4 5 6 6 7 6 6 5 3 4 4 4 5 6 5 4 4 3
8 7 9 7 6 5 3 4 5 4 5 6 6 6 6 6 6 6 5 4 5 4
9 9 9 4 3 3 5 6 7 7 7 7 7 7 8 8 7 8 8 7 8 8
8 7 7 7 7 6 6 6 7 7 8 8 8 8 8 8 8 9 9 8 9 9
10 9 8 9 8 7 7 8 8 9 9 9 9 9 9 10 10 10 10 10 11 10
9 10 9 9 8 8 8 9 9 9 9 9 9 9 9 9 9 9 10 10 11 11
10 10 10 10 9 9 9 9 10 10 10 9 8 7 9 9 9 9 9 8 9 10
11 10 9 10 10 10 10 10 10 10 9 9 7 10 10 9 9 8 8 7 6 7
12 11 11 11 11 11 11 11 10 10 10 10 9 10 11 9 8 8 8 7 7 6
13 13 12 12 12 11 10 10 9 9 9 9 8 11 12 11 9 8 8 7 7 6
14 14 13 12 12 11 10 10 8 9 9 9 8 10 10 8 8 8 6 5 5 5
14 14 13 13 12 10 10 10 8 8 8 9 9 8 9 6 6 6 4 4 5 7
13 13 13 13 11 11 10 9 8 8 7 8 9 8 7 3 4 4 3 4 5 6
Wind_Direction
172 150 59 325 317 293 276 270 271 257 258 235 256 246 230 156 84 70 63 68 70 71
187 180 282 278 264 262 263 242 233 230 218 209 202 152 112 89 79 75 67 69 66 55
191 184 219 241 245 245 196 182 150 149 138 121 115 102 109 98 78 85 75 68 66 54
204 202 221 232 162 131 136 139 131 117 115 114 108 98 93 90 92 91 85 78 75 66
202 199 158 151 144 136 128 129 124 125 112 107 107 105 102 101 94 89 85 78 72 59
173 166 150 138 127 135 135 122 115 109 115 116 104 105 104 98 92 84 81 74 68 61
159 152 140 136 137 138 129 122 116 115 116 106 106 102 98 97 97 94 83 76 71 65
153 143 136 131 127 125 121 117 123 118 111 110 114 111 114 110 100 92 86 75 72 68
144 135 131 132 132 128 122 123 122 125 123 113 99 108 100 103 97 89 88 85 84 86
145 137 139 141 137 133 131 129 123 118 114 106 110 104 100 102 101 100 87 80 82 86
150 147 147 142 137 135 131 125 124 119 113 108 104 110 108 107 107 96 84 71 67 72
155 149 148 145 143 134 132 131 128 117 116 115 115 117 117 125 115 103 91 75 59 62
156 152 150 145 141 137 136 133 133 126 120 116 123 127 126 137 123 121 111 92 71 51
154 150 147 142 143 141 139 137 142 142 139 130 139 144 141 134 141 129 117 93 97 95